Vorticity
7 7 7 8 8 8 8 8 9 9 9 10 10 10 10 10 10 10 10 9 9 8 7 6 6 5 5 5 5 5 5 5 5 5 5 5 5 5 5 5 5 5 4 4 4 4 4 4 3 3 2 2 2 2 2 2 2 3 3 3 4 4 4 5 5 5 6 6 6 6 6 6 6 6 6 6 6 6 6 6 6 6 5 5 5 4 4 4 4 4 4 5 5 5 5 6 6 6 7 7 8 8 9
7 7 8 8 8 9 9 9 9 9 10 10 10 10 10 10 9 9 8 7 7 6 6 5 5 5 5 5 5 5 4 4 4 4 4 4 3 3 3 2 2 2 2 2 1 1 1 1 1 2 1 1 1 1 1 1 1 1 2 2 2 2 3 3 3 3 3 3 4 4 4 3 3 3 3 4 4 4 4 4 4 4 4 4 4 3 3 3 3 4 4 4 4 4 4 4 5 6 6 7 7 8 8
8 8 8 9 9 9 9 9 9 9 10 9 9 9 9 8 8 7 6 6 5 5 5 5 5 5 5 5 4 4 4 3 3 2 2 2 2 2 2 2 1 1 1 1 0 1 1 1 2 2 2 3 3 3 3 2 2 2 2 3 3 3 3 3 3 3 3 3 3 3 3 3 3 3 3 3 3 3 3 3 3 3 4 4 4 4 4 4 4 4 4 4 4 4 4 4 5 5 6 6 7 7 8
8 8 9 9 9 9 9 9 9 9 9 9 8 8 7 7 7 6 6 5 5 5 5 5 5 5 5 5 4 4 3 2 2 2 2 2 2 2 3 2 2 2 2 2 2 2 2 3 3 4 4 5 5 5 5 5 5 4 4 4 4 5 5 4 4 4 4 4 4 4 4 4 4 4 4 5 5 5 5 5 5 5 5 5 5 5 5 5 5 5 5 5 5 5 5 5 5 6 6 6 6 7 8
9 9 9 9 9 9 8 8 8 8 8 7 7 7 6 6 6 6 5 5 5 5 5 5 5 5 4 4 4 4 3 2 2 2 2 3 3 4 4 4 4 4 4 4 4 4 4 4 5 5 5 6 6 6 6 6 6 6 5 5 5 6 6 6 6 6 6 6 6 6 6 6 6 6 6 6 7 7 7 7 7 7 6 6 6 6 6 6 7 7 7 7 6 6 6 6 6 6 6 6 7 7 7
9 9 9 8 8 8 8 8 7 7 7 6 6 6 6 6 6 6 6 5 5 5 5 4 4 4 4 4 4 4 3 3 3 3 3 3 4 4 4 4 4 5 5 5 4 4 4 4 4 4 4 4 4 4 5 5 5 5 5 5 5 5 6 6 6 6 6 6 6 6 6 7 7 7 7 7 7 7 8 8 8 7 7 7 7 7 7 7 7 7 7 7 7 7 7 7 7 7 7 7 7 7 7
9 8 8 7 7 7 7 7 7 6 6 6 6 6 5 5 6 6 6 5 5 4 4 4 3 3 3 3 3 3 3 3 3 3 3 3 3 3 3 3 4 4 4 4 4 3 3 3 3 3 2 2 2 3 3 3 4 4 4 5 5 5 5 5 5 6 6 6 6 6 7 6 6 6 6 6 7 7 7 7 7 7 7 7 6 6 6 6 7 7 7 8 8 8 8 8 7 7 7 7 7 7 7
8 7 7 7 6 6 6 6 6 6 6 5 5 5 5 5 5 5 5 5 4 4 3 2 2 2 2 2 2 2 3 3 2 2 2 2 2 2 2 2 2 2 2 2 2 2 2 2 2 2 2 2 2 2 2 2 3 3 4 4 4 4 4 4 5 5 6 6 6 6 6 6 6 6 6 6 6 6 6 6 6 6 6 6 6 6 6 6 6 6 7 7 7 8 8 8 7 7 7 6 6 6 6
7 6 6 6 6 6 6 5 5 5 5 5 5 5 5 5 5 5 4 4 3 2 2 2 2 2 3 3 2 2 2 2 1 1 1 1 1 1 1 1 1 1 2 2 2 2 2 2 2 2 2 2 2 2 2 2 3 3 3 4 4 4 4 4 4 5 5 5 5 5 5 4 4 4 4 4 4 5 5 5 5 5 5 5 5 5 5 5 6 6 6 6 7 7 7 7 7 6 6 5 5 4 4
6 6 5 5 5 5 5 4 4 4 3 3 4 4 4 4 4 4 3 2 2 2 1 1 1 2 2 2 2 1 1 0 0 0 0 0 0 0 0 1 2 2 2 2 2 2 2 2 2 2 2 2 2 2 2 2 3 3 4 4 4 4 4 4 4 4 4 5 5 4 4 4 4 4 3 4 4 4 4 4 4 4 5 5 5 5 5 5 5 6 6 6 6 6 6 6 6 5 5 4 4 3 2
5 4 4 4 4 4 4 3 3 2 2 2 2 3 3 3 3 2 2 1 0 0 0 0 1 2 2 2 1 0 -0 -0 -1 -1 -1 -1 -0 0 1 2 2 3 3 3 3 3 3 3 3 3 3 3 3 3 3 3 4 4 4 4 5 5 4 4 4 4 4 4 4 4 4 4 4 3 3 3 4 4 4 4 4 4 4 5 5 5 5 5 5 5 5 5 5 5 5 5 4 4 4 3 3 2 2
4 4 4 3 3 3 3 3 3 3 2 2 2 2 2 2 2 2 1 1 0 -0 -0 0 1 1 2 1 0 -0 -1 -1 -1 -1 -1 -1 -0 1 2 3 4 4 4 4 4 4 3 3 3 3 3 3 4 4 4 4 4 5 5 5 5 5 5 5 5 5 5 5 4 4 4 4 4 4 4 4 4 4 4 4 4 4 4 4 4 5 5 5 6 6 5 5 5 5 4 4 4 4 3 3 3 3 2
4 4 4 4 4 4 4 4 4 4 4 4 4 3 3 3 3 2 2 2 1 1 1 1 2 2 2 1 0 -0 -1 -2 -2 -2 -2 -1 0 2 3 4 4 5 5 4 4 4 4 4 4 4 4 4 4 4 4 5 5 5 5 5 5 5 5 5 5 5 5 5 5 4 4 4 4 4 4 4 4 4 4 3 4 4 4 4 4 5 5 5 6 6 6 5 5 4 4 4 4 4 3 3 3 3 3
4 5 5 5 5 5 5 5 5 5 5 5 5 4 4 4 4 4 3 3 3 3 3 3 3 3 3 2 1 -1 -2 -2 -2 -2 -1 0 1 3 4 4 5 5 5 4 4 4 4 4 4 4 4 4 5 5 5 5 5 6 6 5 5 5 5 5 5 4 4 4 4 4 4 4 4 4 4 4 4 3 3 3 3 4 4 4 4 4 5 5 6 6 6 5 5 4 4 4 4 4 4 4 4 4 4
5 5 5 5 5 5 5 5 5 5 5 4 4 4 4 4 4 4 4 4 4 4 4 4 4 4 3 2 0 -1 -2 -3 -2 -2 -0 1 2 4 4 5 5 4 4 4 4 4 4 4 4 5 5 5 6 6 6 6 6 6 6 5 5 5 5 5 4 4 4 4 3 3 4 4 4 4 4 4 4 3 3 3 3 3 3 4 4 4 4 5 5 5 6 5 5 5 4 4 4 4 4 4 4 4 4
5 5 5 4 4 4 4 3 3 3 3 3 2 2 3 3 3 3 3 4 4 4 4 4 4 4 3 2 0 -1 -2 -2 -2 -1 1 2 3 4 4 4 4 4 4 4 4 4 4 5 5 5 6 6 6 6 6 6 6 6 6 5 5 5 5 5 5 4 4 3 3 3 3 3 4 4 4 4 4 4 3 3 3 3 3 3 3 4 4 4 4 5 5 5 5 5 5 4 4 4 4 4 4 5 5
4 3 3 2 2 2 1 1 1 1 1 1 1 1 1 1 1 2 2 2 3 3 3 3 3 3 2 0 -1 -2 -2 -2 -1 0 2 3 4 4 4 4 4 4 4 4 4 5 5 5 5 6 6 6 6 6 6 6 6 6 6 5 5 5 5 5 5 4 4 3 3 3 3 3 3 3 4 4 4 4 4 4 4 3 3 3 3 3 3 4 4 4 4 4 4 4 4 4 4 4 4 4 5 5 4
2 1 0 -0 -0 -0 -0 0 0 0 0 0 0 0 0 0 0 1 1 2 2 2 2 2 2 2 1 0 -1 -1 -1 -0 1 2 3 3 4 4 4 4 3 3 4 4 4 5 5 5 6 6 6 6 6 6 6 6 6 6 6 5 5 5 5 4 4 4 4 3 3 3 3 3 3 3 3 4 4 4 4 4 4 4 4 4 3 3 3 3 3 3 3 3 4 4 4 4 4 4 4 4 4 4 4
-1 -1 -2 -2 -2 -1 -0 0 0 1 1 1 1 1 1 1 1 1 1 2 2 2 2 2 2 1 1 0 0 0 0 1 2 3 3 4 4 3 3 3 3 3 3 4 4 4 5 5 6 6 6 6 6 5 5 6 6 5 5 5 5 5 5 4 4 4 3 3 3 3 3 4 4 4 4 4 4 4 4 4 4 4 4 4 4 4 4 3 3 3 3 3 3 4 3 3 3 4 4 4 4 4 3
-2 -2 -2 -2 -1 -0 0 1 2 2 2 2 2 2 2 2 2 2 2 2 2 2 2 2 2 2 1 1 1 1 2 2 3 3 3 3 3 3 3 3 3 4 4 4 4 5 5 6 6 6 6 6 6 6 6 5 5 5 5 5 5 5 5 5 4 4 4 4 4 4 4 4 4 4 4 4 4 4 4 4 4 4 4 4 4 4 4 4 4 4 4 4 4 4 4 4 3 3 4 4 3 3 3
-1 -1 -1 -0 0 1 2 2 3 3 3 4 4 4 3 3 3 3 3 3 3 3 3 2 2 2 2 2 2 2 2 2 3 3 3 3 3 3 3 3 4 4 5 5 6 6 6 6 6 6 6 6 6 6 6 5 5 4 4 4 4 4 4 4 4 4 4 4 4 4 4 4 4 4 4 4 5 5 5 5 5 5 4 4 4 4 4 3 3 3 3 4 4 4 4 4 4 4 3 3 3 3 3
0 1 1 2 2 2 3 3 3 4 4 4 4 4 4 4 4 4 4 4 3 3 3 2 2 2 2 2 2 2 3 3 3 3 3 3 3 3 4 4 5 5 6 6 6 6 6 6 6 6 6 6 6 5 5 4 3 3 2 2 2 2 3 3 3 3 3 3 3 3 3 4 4 4 4 4 4 4 4 4 4 4 4 4 4 4 4 3 3 2 2 2 2 2 2 2 2 2 2 2 2 2 2
2 3 3 3 3 3 3 3 3 4 4 4 4 5 5 5 4 4 4 4 3 3 3 2 2 2 2 2 3 3 3 3 3 3 3 3 3 4 4 5 6 6 6 6 7 6 6 6 6 5 5 4 4 3 3 2 2 1 1 1 1 1 1 2 2 2 3 3 3 3 3 3 3 4 4 4 4 4 4 4 4 3 3 3 3 3 3 3 2 2 2 1 1 1 1 1 1 1 0 0 0 0 1
4 4 4 4 4 3 3 3 3 4 4 4 4 4 4 4 4 4 4 4 3 3 3 2 2 2 2 2 3 3 3 3 3 3 3 3 4 4 5 6 6 6 7 7 7 6 6 6 5 5 4 3 3 2 2 2 2 2 2 2 2 2 2 3 4 4 4 4 4 4 4 4 5 5 5 5 6 6 6 6 5 5 5 4 4 4 4 4 3 3 2 2 2 2 2 1 0 -0 -0 -1 -1 -1 -1
4 4 4 4 4 4 3 3 4 4 4 4 4 4 4 4 3 3 3 3 3 3 3 2 2 2 2 3 3 3 3 3 3 3 4 4 4 5 6 6 6 7 7 7 7 7 7 6 6 5 5 4 4 4 4 4 4 5 5 6 6 6 6 6 7 7 7 8 8 8 7 7 7 7 7 8 8 8 9 9 9 9 8 8 8 8 7 7 7 7 8 8 7 5 4 3 3 3 3 2 3 3 2
3 3 4 4 4 4 4 4 4 4 4 4 4 4 3 3 3 3 3 3 3 3 3 3 2 3 3 3 3 3 4 4 4 4 4 5 6 6 6 7 7 6 6 6 6 6 6 6 6 5 5 5 6 6 6 7 8 9 10 10 11 11 11 11 11 11 11 11 11 11 11 11 10 10 10 9 10 10 10 11 11 11 11 11 11 11 10 10 10 11 11 10 9 9 10 10 9 9 9 9 10 10 8
2 3 3 4 4 4 4 4 4 4 4 4 4 4 3 3 2 2 2 3 3 3 3 3 3 3 3 4 4 4 4 4 5 5 6 6 6 7 7 7 7 6 5 4 4 3 3 3 4 4 5 6 6 8 9 10 11 12 13 13 14 14 14 14 14 14 14 14 14 14 14 14 13 13 13 12 11 10 11 11 11 11 11 11 11 11 11 11 11 11 12 12 12 13 13 12 12 12 11 13 12 11 10
2 2 2 3 3 4 4 4 4 4 4 4 4 4 3 3 3 3 3 3 3 3 3 3 4 4 4 4 4 4 5 5 6 6 6 7 7 7 7 7 6 5 4 3 2 2 3 3 4 6 7 8 9 10 10 11 12 12 13 13 14 14 14 14 14 14 14 14 14 14 14 14 14 13 13 12 11 10 10 10 10 11 11 11 11 11 10 10 10 10 11 11 11 12 12 12 13 13 11 11 10 11 12
1 1 1 2 2 3 3 4 4 4 3 4 3 3 4 4 3 3 3 3 4 4 4 4 4 5 5 5 5 6 6 6 7 7 7 7 7 7 6 6 6 5 4 4 5 6 7 8 9 10 11 12 12 12 12 12 12 12 12 12 11 11 11 11 11 10 10 10 10 11 11 12 11 11 11 10 10 9 8 8 8 8 9 9 9 9 9 9 9 9 9 9 9 9 10 10 11 11 11 12 12 12 12
-0 0 0 1 2 3 3 4 4 4 3 4 4 4 3 4 4 4 4 4 4 5 5 5 6 6 6 7 7 7 8 8 8 8 9 8 7 7 6 6 7 7 8 9 11 12 13 14 15 15 15 15 14 13 12 12 11 10 10 9 9 8 8 7 7 6 6 6 6 6 7 7 8 8 8 8 8 7 6 6 6 6 6 6 6 6 6 6 6 6 6 6 7 7 7 7 8 8 9 9 10 10 11
-1 -0 0 1 2 3 3 4 4 4 4 4 4 4 4 4 5 5 5 6 6 6 6 7 7 7 8 8 8 9 9 10 10 10 10 9 9 8 8 9 10 12 14 15 16 17 16 16 15 14 13 13 12 11 10 10 9 9 8 7 7 6 6 6 6 5 5 4 4 4 4 5 5 5 6 6 6 6 5 4 4 4 4 4 4 4 4 4 4 4 4 5 5 5 5 5 5 5 6 6 6 7 7
-1 -0 0 1 2 3 4 4 4 4 4 5 5 4 4 5 6 6 6 6 7 7 7 8 8 9 9 10 10 10 11 11 11 11 11 11 11 12 12 13 15 16 17 16 15 14 13 12 11 10 9 9 8 8 8 7 7 7 7 6 6 6 6 6 6 6 5 5 5 4 4 4 4 4 4 4 5 5 5 4 4 4 4 4 4 4 4 4 4 4 4 4 3 3 3 3 3 4 4 4 4 4 4
-1 0 1 2 2 3 4 4 5 5 5 5 5 5 5 6 7 7 7 8 8 9 9 10 10 10 11 12 12 13 13 13 13 13 13 14 14 14 15 15 14 14 13 11 10 9 8 7 6 6 6 6 6 6 6 6 6 6 5 5 5 5 5 5 5 5 5 5 5 5 4 4 4 4 4 4 4 4 4 5 5 5 4 4 4 4 4 4 4 4 4 4 3 3 3 3 3 3 3 3 3 3 3
-0 0 1 2 2 3 4 5 5 6 6 6 6 6 7 7 8 8 9 9 10 10 11 11 12 13 14 14 15 15 15 15 14 14 14 14 14 13 12 11 10 9 7 7 6 6 5 5 5 4 4 4 4 4 4 4 4 4 4 4 4 4 4 4 4 4 4 4 4 5 4 4 4 4 4 4 4 4 5 5 5 5 5 5 5 5 5 5 5 5 5 5 4 4 4 4 3 3 3 3 3 3 3
0 0 1 2 3 4 5 6 6 6 6 7 7 8 8 9 9 10 10 11 12 12 13 13 14 15 16 16 16 16 16 15 14 13 12 11 11 10 9 8 7 6 6 6 5 5 4 4 4 4 3 3 3 3 3 3 3 3 3 3 3 4 4 4 4 4 4 4 4 5 5 5 5 5 5 5 5 5 5 5 5 5 6 6 5 5 5 5 5 5 5 5 5 5 5 5 5 4 4 4 4 3 3
0 1 2 3 4 4 6 6 7 7 7 8 8 9 10 10 11 12 12 13 14 15 15 16 16 16 17 16 15 14 13 12 11 10 9 8 8 7 7 7 7 7 7 7 6 6 5 5 4 4 4 3 3 3 3 3 4 4 4 5 5 5 5 5 5 5 5 5 5 5 5 5 5 5 5 5 5 5 5 5 5 5 5 5 5 6 6 6 6 6 6 6 6 6 6 6 6 6 6 5 5 5 5
1 2 3 4 5 6 6 7 7 8 8 9 10 10 11 12 13 14 15 16 16 17 17 17 16 15 14 13 12 10 9 8 7 7 7 6 7 7 8 8 8 8 8 8 7 7 6 6 6 5 5 5 5 5 5 5 6 6 6 6 6 6 6 5 5 5 4 4 4 4 4 4 4 4 4 4 5 5 5 5 5 5 5 5 5 6 6 6 6 6 6 6 6 6 6 6 6 6 6 6 6 6 6
3 3 4 5 6 7 7 8 8 9 10 11 11 12 13 14 15 16 17 17 17 17 16 15 13 12 10 9 7 6 5 5 5 5 5 6 6 6 7 7 7 7 7 7 6 6 6 6 6 6 6 6 6 6 6 6 6 6 6 6 5 5 4 4 4 4 4 4 4 4 4 4 4 4 4 5 5 5 5 5 5 5 5 5 6 5 5 5 5 5 4 5 5 6 6 6 6 6 6 6 6 6 6
4 5 6 7 7 8 9 9 10 11 12 13 14 15 15 16 17 17 18 17 16 15 13 11 10 8 6 5 4 4 4 4 5 5 5 5 5 5 5 4 4 4 4 4 4 4 4 4 5 5 5 5 5 5 5 5 5 5 4 4 4 4 4 4 4 4 4 4 4 4 4 4 4 4 4 5 5 5 5 5 5 5 5 5 5 5 4 4 4 3 3 2 3 4 5 5 6 6 6 6 6 6 6
6 7 8 8 9 10 10 11 12 13 14 15 16 17 17 17 17 17 16 15 13 11 9 7 6 5 4 4 4 4 5 5 6 6 6 5 5 4 4 3 3 3 2 2 2 3 3 3 4 4 4 4 4 4 4 4 4 4 4 4 4 4 4 4 4 4 4 4 4 4 4 4 4 4 4 4 5 5 5 5 5 4 4 4 3 3 3 3 2 2 2 2 2 3 4 5 6 6 6 6 6 6 6
9 9 10 11 11 12 13 14 15 16 16 17 17 17 17 16 15 14 13 11 9 7 5 4 4 3 3 4 4 5 5 6 6 6 5 5 4 4 3 3 3 2 2 2 2 2 3 3 3 3 3 3 3 3 3 4 4 4 4 4 4 4 4 4 4 4 4 4 4 4 4 4 4 4 4 4 5 5 4 4 4 4 3 2 2 2 1 2 2 2 3 3 4 4 4 5 6 6 7 6 6 6 6
11 12 13 13 14 14 15 16 17 17 17 17 17 16 15 13 12 10 9 7 5 4 3 3 3 3 3 4 5 5 5 5 5 4 4 4 3 3 3 3 3 2 2 2 2 3 3 3 3 3 3 3 3 4 4 4 4 4 4 4 4 4 4 4 4 4 4 4 4 4 4 4 4 4 4 4 4 4 4 4 3 2 2 2 1 1 1 2 3 4 5 6 6 6 6 6 7 7 7 7 7 7 7
13 14 15 15 16 16 17 17 17 17 17 16 15 14 12 10 8 7 6 4 3 3 2 3 3 4 4 4 4 4 4 4 4 3 3 3 3 3 2 2 2 2 2 2 2 3 3 3 3 3 3 4 4 4 4 4 4 4 4 4 4 4 4 4 4 4 4 4 4 4 4 4 4 4 4 4 4 4 4 3 2 2 2 1 2 2 2 4 5 6 7 8 8 8 8 8 8 8 7 8 8 8 8
14 15 16 16 16 17 17 17 17 16 15 14 12 10 8 7 6 4 4 3 3 2 3 3 3 4 4 4 4 3 3 3 2 2 2 2 2 2 2 2 2 2 2 2 2 3 3 3 3 3 4 4 4 4 4 4 4 4 4 4 4 4 4 4 4 4 4 4 4 4 4 4 4 4 4 4 4 3 3 2 2 2 2 2 3 4 5 6 7 8 9 9 10 10 10 10 10 9 9 9 10 10 9
14 15 15 16 16 16 16 16 15 14 13 11 9 7 6 5 4 3 2 2 2 3 2 3 3 3 3 3 3 2 2 2 2 2 2 2 2 2 2 2 2 2 2 2 2 3 3 3 3 4 4 4 4 4 4 5 5 5 5 5 5 5 5 4 4 4 4 4 4 4 4 5 4 4 4 3 3 3 2 2 3 3 3 4 5 6 7 8 9 10 11 11 12 12 13 13 13 13 12 12 12 12 11
13 14 15 15 15 15 15 14 13 11 10 8 6 5 4 4 3 3 2 2 2 3 3 2 2 2 3 2 2 2 2 2 2 2 2 2 2 2 2 2 2 2 2 2 3 3 3 3 4 4 4 4 5 5 5 5 5 5 5 5 5 5 5 5 5 4 4 4 4 4 5 4 4 4 3 3 3 3 3 3 4 4 5 6 8 9 10 11 12 13 13 14 15 15 16 16 17 17 17 17 16 16 15
12 13 14 14 14 13 13 11 10 9 7 6 5 4 4 3 3 2 2 2 2 2 2 2 2 1 1 2 2 2 2 2 2 2 2 2 2 2 2 2 2 2 3 2 3 3 3 4 4 4 5 5 5 5 6 6 5 5 5 5 5 5 5 5 5 5 5 4 4 4 4 4 4 3 3 3 3 4 4 5 5 6 8 9 11 12 13 14 15 16 17 18 19 20 20 21 21 22 22 22 22 21 20
11 12 13 13 12 12 10 10 8 7 5 4 4 3 3 3 2 2 2 2 2 2 2 2 1 1 1 1 2 2 2 2 2 2 1 2 2 3 2 2 2 3 3 3 3 4 4 4 4 5 5 5 6 6 6 6 6 6 6 5 5 6 6 5 5 5 5 4 4 4 4 4 3 3 3 4 4 5 6 6 8 9 11 12 14 15 16 18 19 20 21 22 23 24 24 25 26 27 28 28 29 29 28
11 11 12 11 11 10 9 8 6 5 4 3 3 3 3 2 2 2 2 2 2 2 2 2 1 1 0 1 1 2 2 2 2 2 2 2 2 3 3 3 3 3 4 4 4 4 4 5 5 5 6 6 6 6 6 6 6 6 6 6 6 6 6 6 5 5 4 4 4 4 3 3 3 4 4 4 5 6 7 9 11 12 14 16 17 19 20 21 22 23 24 25 26 27 28 29 30 31 33 34 35 35 34
11 11 11 10 9 8 7 6 5 4 3 3 3 3 2 2 2 2 2 2 2 2 1 2 2 2 1 1 1 2 2 2 2 2 2 3 3 2 2 3 4 4 4 4 4 4 5 5 6 6 5 5 5 5 6 6 6 6 6 6 6 6 6 6 5 4 4 4 4 4 3 4 4 5 5 6 7 9 10 12 14 16 18 19 20 21 22 22 23 23 24 25 27 28 30 31 33 35 36 37 37 36 36
10 10 10 9 8 7 6 6 5 4 3 3 3 2 2 2 2 2 2 2 2 2 2 2 2 2 2 2 2 2 2 2 2 2 2 4 4 3 2 2 2 3 4 4 6 6 6 6 6 6 5 5 6 6 6 6 6 6 6 6 6 6 6 5 5 4 4 3 3 3 4 4 5 6 7 8 10 12 13 15 17 19 20 21 22 22 21 21 22 22 24 25 27 29 31 32 34 34 34 34 33 32 31
10 10 9 8 7 6 6 5 4 4 3 3 3 3 3 2 2 2 2 2 2 2 2 2 2 2 3 2 2 2 2 2 2 3 3 2 3 4 4 2 2 3 3 4 5 7 7 7 6 6 6 6 6 6 6 6 6 6 6 6 6 6 5 5 4 4 3 3 4 4 5 6 7 8 9 11 13 15 16 18 20 21 22 21 21 20 19 19 20 21 22 24 26 28 29 30 30 30 29 28 27 26 25
10 9 8 7 6 6 5 5 4 4 3 3 3 3 3 3 3 3 3 3 3 3 3 3 2 2 2 3 3 2 3 2 3 3 4 3 2 3 5 6 5 4 3 2 3 4 8 6 6 7 8 7 7 6 6 6 6 6 6 6 6 5 4 4 4 3 3 4 4 6 7 8 9 11 12 14 15 17 19 20 21 21 21 19 18 17 17 18 19 20 21 22 23 24 24 24 24 24 23 23 23 22 22
9 8 7 7 6 6 5 5 4 4 3 3 3 3 4 3 3 3 3 3 3 3 3 3 3 2 2 2 3 2 2 3 3 3 4 4 3 2 3 6 6 4 5 5 4 3 5 6 6 6 8 8 7 6 7 7 6 6 6 5 5 4 4 4 3 4 5 6 6 7 9 10 12 13 15 16 17 18 19 20 20 19 18 17 17 17 17 18 18 19 19 19 19 19 19 18 18 18 18 18 19 19 19
8 8 7 7 6 6 5 5 5 4 4 4 4 4 4 4 4 4 4 4 3 3 3 3 3 3 3 2 2 3 2 3 4 4 4 5 6 5 3 3 3 4 5 9 9 6 3 6 6 6 6 7 7 7 8 7 6 6 5 4 4 3 3 4 4 5 7 8 9 10 12 12 13 15 17 17 18 19 19 18 18 17 17 16 17 18 18 18 18 17 16 16 15 15 14 14 14 14 14 14 15 15 16
7 7 7 6 6 6 6 5 5 5 5 4 4 4 4 4 4 4 4 4 4 3 3 3 3 3 3 3 3 3 3 4 4 5 4 5 6 7 6 4 4 4 3 6 7 7 5 5 6 6 7 7 7 7 7 7 6 5 4 4 3 3 4 5 6 7 8 10 11 13 14 14 15 16 17 17 17 17 17 17 16 16 16 17 17 18 17 16 15 14 13 12 12 11 11 11 11 11 11 12 12 12 12
6 6 6 6 6 6 6 6 6 5 5 5 5 4 4 4 4 4 4 4 4 4 3 3 3 4 4 4 4 3 4 4 5 6 6 5 5 6 8 8 8 7 6 5 4 4 6 6 7 6 5 7 8 8 6 5 5 4 3 3 3 4 5 6 8 9 10 12 13 14 15 16 16 16 15 15 15 15 15 15 16 16 17 17 16 15 14 12 11 10 9 9 9 8 8 8 9 9 9 9 10 10 10
6 6 6 6 6 6 6 6 5 5 5 5 5 4 4 4 4 4 4 4 4 4 4 4 4 4 4 5 5 4 5 4 4 5 6 6 6 6 6 7 8 9 10 8 6 5 4 6 7 7 4 4 6 8 6 4 3 3 3 3 4 5 6 8 9 11 12 13 14 15 15 16 15 14 13 14 14 13 14 15 16 16 16 15 14 12 10 9 8 7 6 6 6 6 7 7 7 7 8 8 8 8 8
5 5 5 5 5 5 5 5 5 5 5 5 4 4 4 4 4 4 4 4 4 4 4 5 5 5 4 5 5 6 6 5 5 4 4 6 7 7 6 6 6 7 8 8 9 8 6 6 7 7 6 5 4 4 6 4 3 2 3 4 5 7 9 10 11 12 13 15 15 15 15 15 14 13 13 13 13 13 14 15 16 15 14 12 11 9 8 7 6 6 6 6 6 6 7 7 7 8 8 8 8 8 9
5 5 5 5 5 5 5 5 5 5 5 4 4 4 4 4 4 4 4 5 5 5 5 6 6 5 5 5 6 6 6 5 5 5 5 6 6 7 7 6 7 7 7 7 8 9 10 9 8 7 7 6 3 2 2 3 3 3 3 5 7 9 11 12 12 13 14 15 16 15 14 13 12 12 12 13 13 14 15 15 14 13 11 9 8 7 7 6 6 6 6 7 7 7 8 8 8 8 8 9 9 9 9
5 5 5 5 5 5 4 4 4 5 5 5 5 5 5 5 5 5 5 5 6 6 6 6 6 6 6 6 6 6 6 5 5 6 7 6 5 5 6 7 7 7 8 8 8 9 9 9 9 8 6 5 4 2 1 1 2 4 6 8 9 10 12 13 14 14 15 16 15 14 13 11 11 11 12 13 13 14 14 13 12 10 8 7 6 6 6 7 7 7 7 8 8 8 8 8 8 9 9 9 8 8 8
Height
5889 5889 5890 5890 5890 5890 5890 5890 5890 5890 5891 5891 5890 5890 5890 5890 5890 5890 5890 5890 5890 5890 5890 5890 5890 5890 5890 5890 5889 5889 5889 5889 5889 5889 5889 5889 5889 5889 5889 5889 5889 5888 5888 5888 5888 5887 5887 5887 5887 5887 5887 5886 5886 5885 5885 5885 5885 5885 5884 5884 5884 5883 5883 5882 5882 5882 5881 5881 5881 5880 5880 5880 5880 5879 5879 5879 5879 5878 5878 5877 5877 5876 5876 5875 5875 5875 5874 5874 5874 5873 5873 5872 5872 5871 5871 5870 5870 5869 5869 5869 5868 5868 5868
5888 5889 5889 5889 5889 5889 5889 5889 5889 5889 5889 5889 5890 5889 5889 5889 5889 5889 5889 5889 5889 5889 5889 5889 5889 5889 5889 5889 5889 5889 5889 5889 5889 5889 5889 5889 5888 5888 5888 5888 5888 5888 5888 5887 5887 5887 5886 5886 5886 5886 5885 5885 5885 5884 5884 5884 5884 5884 5883 5883 5883 5882 5882 5882 5881 5881 5880 5880 5879 5879 5879 5879 5879 5878 5878 5878 5877 5877 5877 5876 5876 5875 5875 5874 5874 5874 5873 5873 5872 5872 5872 5871 5870 5870 5869 5869 5869 5868 5868 5867 5867 5867 5866
5887 5887 5888 5888 5888 5888 5888 5888 5888 5888 5889 5889 5889 5889 5889 5889 5889 5889 5889 5889 5889 5888 5888 5888 5888 5888 5888 5888 5888 5888 5888 5888 5888 5888 5888 5888 5888 5887 5887 5887 5887 5887 5887 5887 5886 5886 5886 5885 5885 5884 5884 5884 5884 5884 5883 5883 5883 5883 5882 5882 5881 5881 5881 5880 5880 5880 5879 5879 5879 5878 5878 5878 5877 5877 5877 5876 5876 5876 5875 5875 5874 5874 5874 5873 5873 5872 5872 5871 5871 5871 5870 5870 5869 5869 5868 5868 5867 5867 5867 5866 5866 5865 5865
5886 5886 5887 5887 5887 5887 5887 5887 5887 5887 5887 5887 5888 5888 5888 5888 5888 5888 5888 5888 5887 5887 5887 5887 5887 5887 5887 5887 5887 5887 5887 5887 5887 5887 5887 5887 5887 5887 5886 5886 5886 5886 5886 5886 5885 5885 5885 5884 5884 5884 5883 5883 5883 5882 5882 5882 5882 5881 5881 5881 5880 5880 5880 5879 5879 5879 5878 5878 5878 5877 5877 5876 5876 5876 5875 5875 5875 5874 5874 5874 5873 5873 5872 5872 5871 5871 5870 5870 5870 5869 5869 5869 5868 5868 5867 5867 5866 5866 5865 5865 5864 5864 5864
5885 5885 5885 5886 5886 5886 5886 5886 5886 5886 5886 5886 5887 5887 5887 5887 5887 5887 5887 5887 5886 5886 5886 5887 5887 5887 5887 5886 5886 5886 5886 5886 5886 5886 5886 5886 5886 5886 5886 5885 5885 5885 5885 5885 5884 5884 5884 5884 5883 5883 5882 5882 5881 5881 5881 5880 5880 5880 5880 5879 5879 5879 5879 5878 5878 5877 5877 5877 5876 5876 5876 5875 5875 5874 5874 5874 5873 5873 5873 5872 5872 5871 5871 5870 5870 5870 5869 5869 5868 5868 5868 5867 5867 5866 5866 5865 5865 5864 5864 5864 5863 5863 5863
5884 5884 5884 5884 5885 5885 5885 5885 5885 5885 5885 5885 5885 5886 5886 5886 5886 5886 5886 5885 5885 5885 5886 5886 5886 5886 5886 5886 5885 5885 5885 5885 5885 5885 5885 5885 5885 5885 5885 5884 5884 5884 5884 5884 5883 5883 5883 5883 5882 5882 5881 5881 5880 5880 5879 5879 5879 5879 5879 5878 5878 5878 5877 5877 5876 5876 5876 5875 5875 5875 5874 5874 5874 5873 5873 5873 5872 5872 5871 5871 5870 5870 5869 5869 5869 5868 5868 5868 5867 5867 5866 5866 5865 5865 5865 5864 5864 5863 5863 5862 5862 5861 5861
5883 5883 5883 5884 5884 5884 5884 5884 5884 5884 5884 5884 5884 5884 5885 5885 5885 5885 5885 5885 5884 5884 5885 5885 5885 5885 5885 5885 5884 5884 5884 5884 5884 5884 5884 5884 5884 5884 5884 5884 5884 5883 5883 5883 5882 5882 5882 5881 5881 5881 5880 5880 5879 5879 5879 5878 5878 5877 5877 5877 5876 5876 5876 5875 5875 5875 5874 5874 5874 5873 5873 5873 5872 5872 5871 5871 5871 5870 5870 5869 5869 5869 5868 5868 5867 5867 5866 5866 5866 5865 5865 5864 5864 5864 5863 5863 5863 5862 5862 5861 5860 5860 5860
5881 5882 5882 5882 5883 5883 5883 5883 5883 5883 5884 5884 5884 5884 5884 5884 5884 5884 5884 5884 5884 5884 5884 5884 5884 5884 5884 5884 5884 5884 5884 5883 5883 5883 5883 5883 5883 5883 5883 5883 5882 5882 5882 5881 5881 5881 5881 5880 5880 5879 5879 5879 5879 5878 5877 5877 5877 5876 5876 5875 5875 5875 5874 5874 5874 5873 5873 5873 5872 5872 5872 5871 5871 5870 5870 5870 5869 5869 5869 5868 5868 5867 5867 5866 5866 5865 5865 5865 5864 5864 5864 5863 5863 5862 5862 5862 5861 5861 5860 5860 5859 5859 5858
5881 5881 5881 5881 5882 5882 5882 5882 5882 5882 5883 5883 5883 5883 5883 5883 5883 5883 5883 5883 5883 5882 5883 5883 5883 5883 5883 5883 5883 5883 5882 5882 5882 5882 5882 5882 5882 5882 5882 5881 5881 5881 5880 5880 5880 5879 5879 5879 5879 5878 5878 5878 5877 5877 5876 5876 5875 5875 5874 5874 5874 5873 5873 5873 5872 5872 5871 5871 5870 5870 5870 5870 5869 5869 5869 5868 5868 5868 5867 5867 5866 5866 5865 5865 5864 5864 5864 5863 5863 5863 5862 5862 5861 5861 5861 5860 5860 5859 5859 5859 5858 5858 5857
5879 5880 5880 5880 5880 5881 5881 5881 5881 5881 5881 5881 5882 5882 5882 5882 5882 5882 5882 5882 5882 5882 5882 5882 5882 5882 5882 5882 5881 5881 5881 5881 5881 5881 5881 5881 5881 5880 5880 5880 5880 5879 5879 5879 5879 5878 5878 5878 5877 5877 5877 5876 5876 5875 5875 5874 5874 5874 5873 5873 5872 5872 5871 5871 5870 5870 5869 5869 5869 5869 5868 5868 5868 5868 5867 5867 5866 5866 5866 5865 5865 5864 5864 5864 5863 5863 5862 5862 5861 5861 5861 5860 5860 5860 5859 5859 5859 5858 5858 5858 5857 5856 5856
5879 5879 5879 5879 5879 5879 5880 5880 5880 5880 5880 5880 5880 5881 5881 5881 5881 5881 5881 5881 5881 5881 5881 5880 5880 5880 5880 5880 5880 5880 5880 5880 5880 5880 5880 5879 5879 5879 5879 5879 5879 5878 5878 5877 5877 5877 5876 5876 5876 5875 5875 5875 5874 5874 5874 5873 5873 5872 5872 5871 5871 5870 5869 5869 5869 5868 5868 5868 5867 5867 5867 5866 5866 5866 5865 5865 5865 5864 5864 5864 5863 5863 5862 5862 5862 5861 5861 5860 5860 5859 5859 5859 5859 5858 5858 5858 5857 5857 5856 5856 5856 5855 5855
5877 5878 5878 5878 5878 5879 5879 5879 5879 5879 5879 5879 5879 5879 5879 5879 5880 5880 5880 5880 5880 5880 5880 5879 5879 5879 5879 5879 5879 5879 5879 5879 5879 5879 5879 5878 5878 5878 5878 5877 5877 5877 5876 5876 5875 5875 5875 5874 5874 5874 5874 5873 5873 5872 5872 5872 5871 5871 5870 5870 5869 5869 5868 5868 5867 5867 5866 5866 5865 5865 5865 5864 5864 5864 5864 5864 5863 5863 5863 5862 5862 5861 5861 5860 5860 5859 5859 5859 5859 5858 5858 5857 5857 5857 5856 5856 5856 5855 5855 5854 5854 5854 5853
5876 5876 5877 5877 5877 5877 5877 5878 5878 5878 5878 5878 5878 5879 5879 5879 5879 5879 5879 5879 5879 5879 5879 5879 5879 5878 5878 5878 5878 5878 5878 5878 5878 5877 5877 5877 5877 5876 5876 5876 5875 5875 5874 5874 5874 5873 5873 5873 5872 5872 5872 5871 5871 5870 5870 5870 5869 5869 5869 5868 5868 5867 5867 5866 5865 5865 5864 5864 5864 5864 5863 5863 5863 5862 5862 5862 5861 5861 5861 5861 5860 5860 5859 5859 5859 5858 5858 5857 5857 5857 5856 5856 5855 5855 5855 5854 5854 5854 5854 5853 5853 5852 5852
5875 5875 5875 5876 5876 5876 5876 5876 5877 5877 5877 5877 5877 5877 5877 5877 5877 5878 5878 5878 5878 5878 5878 5878 5877 5877 5877 5877 5877 5877 5877 5877 5876 5876 5876 5875 5875 5875 5874 5874 5874 5873 5873 5873 5872 5872 5871 5871 5871 5870 5870 5869 5869 5869 5868 5868 5868 5867 5867 5867 5866 5866 5865 5865 5864 5864 5863 5863 5862 5862 5862 5861 5861 5860 5860 5860 5859 5859 5859 5859 5859 5859 5858 5858 5857 5857 5856 5856 5855 5855 5855 5854 5854 5854 5853 5853 5853 5852 5852 5852 5851 5851 5850
5874 5874 5874 5874 5874 5875 5875 5875 5875 5876 5876 5876 5876 5876 5876 5876 5876 5876 5876 5876 5876 5876 5876 5876 5876 5876 5876 5876 5876 5876 5876 5875 5875 5875 5874 5874 5874 5873 5873 5873 5872 5872 5871 5871 5870 5870 5869 5869 5869 5869 5868 5868 5867 5867 5866 5866 5866 5865 5865 5865 5864 5864 5864 5863 5863 5862 5862 5862 5861 5861 5860 5860 5859 5859 5858 5858 5858 5857 5857 5857 5857 5857 5856 5856 5856 5855 5855 5854 5854 5854 5853 5853 5853 5852 5852 5851 5851 5851 5850 5850 5849 5849 5849
5873 5873 5873 5873 5874 5874 5874 5874 5874 5874 5874 5875 5875 5875 5875 5875 5875 5875 5875 5875 5875 5875 5875 5875 5875 5875 5875 5875 5874 5874 5874 5874 5874 5873 5873 5873 5872 5872 5871 5871 5870 5870 5869 5869 5869 5868 5868 5867 5867 5867 5866 5866 5865 5865 5864 5864 5864 5864 5863 5863 5863 5862 5862 5862 5862 5861 5861 5860 5860 5859 5859 5859 5858 5857 5857 5856 5856 5856 5855 5855 5855 5855 5855 5855 5854 5854 5854 5853 5853 5852 5852 5851 5851 5851 5850 5850 5849 5849 5849 5848 5848 5848 5847
5871 5872 5872 5872 5872 5873 5873 5873 5873 5873 5873 5873 5874 5874 5874 5874 5874 5874 5874 5874 5874 5874 5874 5874 5874 5874 5874 5874 5873 5873 5873 5872 5872 5872 5871 5871 5871 5870 5870 5869 5869 5868 5868 5868 5867 5867 5866 5866 5865 5865 5864 5864 5864 5863 5863 5862 5862 5862 5861 5861 5861 5860 5860 5860 5860 5859 5859 5859 5859 5858 5858 5857 5857 5856 5856 5855 5854 5854 5854 5854 5853 5853 5853 5853 5853 5853 5852 5852 5851 5851 5850 5850 5849 5849 5849 5848 5848 5847 5847 5847 5846 5846 5846
5870 5870 5871 5871 5871 5871 5871 5872 5872 5872 5872 5872 5872 5872 5872 5872 5872 5872 5873 5873 5873 5873 5872 5872 5872 5872 5872 5872 5872 5871 5871 5871 5870 5870 5870 5869 5869 5869 5868 5868 5867 5867 5866 5866 5865 5865 5864 5864 5864 5863 5863 5862 5862 5861 5861 5861 5860 5860 5859 5859 5859 5859 5858 5858 5858 5858 5858 5857 5857 5856 5856 5856 5855 5855 5854 5854 5854 5853 5853 5852 5852 5851 5851 5851 5851 5851 5850 5850 5850 5849 5849 5849 5848 5848 5847 5847 5846 5846 5845 5845 5845 5844 5844
5869 5869 5869 5869 5870 5870 5870 5870 5870 5870 5870 5870 5870 5870 5871 5871 5871 5871 5871 5871 5871 5871 5871 5871 5871 5871 5870 5870 5870 5870 5869 5869 5869 5868 5868 5868 5867 5867 5866 5866 5865 5865 5864 5864 5864 5863 5863 5862 5862 5861 5861 5860 5860 5860 5859 5859 5859 5858 5858 5857 5857 5857 5856 5856 5856 5856 5855 5855 5855 5854 5854 5854 5854 5854 5853 5853 5853 5852 5852 5851 5851 5850 5850 5849 5849 5849 5849 5849 5848 5848 5848 5847 5847 5846 5846 5845 5845 5844 5844 5844 5843 5843 5842
5867 5868 5868 5868 5869 5869 5869 5869 5869 5869 5869 5869 5869 5869 5869 5869 5869 5869 5869 5869 5869 5869 5869 5869 5869 5869 5869 5869 5868 5868 5868 5867 5867 5866 5866 5866 5865 5865 5864 5864 5864 5863 5863 5862 5862 5861 5861 5861 5860 5860 5859 5859 5858 5858 5858 5857 5857 5856 5856 5855 5855 5855 5854 5854 5854 5854 5853 5853 5853 5853 5852 5852 5852 5852 5851 5851 5851 5851 5850 5850 5850 5849 5849 5848 5848 5847 5847 5847 5846 5846 5846 5845 5845 5845 5844 5844 5843 5843 5842 5842 5841 5841 5841
5866 5866 5866 5867 5867 5867 5867 5867 5868 5868 5868 5868 5868 5868 5868 5868 5868 5868 5868 5868 5868 5868 5868 5867 5867 5867 5867 5867 5866 5866 5866 5865 5865 5865 5864 5864 5864 5863 5863 5862 5862 5861 5861 5860 5860 5859 5859 5859 5859 5858 5858 5857 5857 5856 5856 5855 5855 5854 5854 5854 5853 5853 5853 5852 5852 5852 5851 5851 5851 5850 5850 5850 5850 5849 5849 5849 5849 5849 5849 5849 5848 5848 5847 5847 5846 5846 5846 5845 5845 5844 5844 5844 5843 5843 5842 5842 5842 5841 5841 5840 5840 5839 5839
5864 5864 5865 5865 5865 5865 5866 5866 5866 5866 5866 5866 5866 5866 5866 5866 5866 5866 5866 5866 5866 5866 5866 5866 5865 5865 5865 5865 5864 5864 5864 5864 5863 5863 5863 5862 5862 5861 5861 5861 5860 5860 5859 5859 5858 5858 5857 5857 5857 5856 5856 5855 5855 5854 5854 5854 5853 5853 5852 5852 5852 5851 5851 5850 5850 5849 5849 5849 5849 5849 5848 5848 5848 5848 5847 5847 5847 5847 5846 5846 5846 5846 5845 5845 5845 5844 5844 5844 5843 5843 5842 5842 5841 5841 5840 5840 5840 5839 5839 5839 5838 5838 5838
5863 5863 5863 5864 5864 5864 5864 5864 5864 5864 5864 5864 5864 5864 5864 5864 5864 5864 5864 5864 5864 5864 5864 5864 5864 5863 5863 5863 5863 5862 5862 5862 5861 5861 5861 5860 5860 5860 5859 5859 5859 5858 5858 5857 5856 5856 5856 5855 5855 5854 5854 5854 5853 5853 5852 5852 5851 5851 5850 5850 5850 5849 5849 5848 5848 5847 5847 5847 5846 5846 5846 5846 5845 5845 5845 5845 5844 5844 5844 5844 5844 5844 5843 5843 5843 5843 5842 5842 5842 5841 5841 5840 5839 5839 5839 5838 5838 5838 5837 5837 5836 5835 5835
5861 5861 5862 5862 5862 5862 5862 5863 5863 5863 5863 5863 5863 5863 5863 5863 5863 5863 5863 5863 5863 5862 5862 5862 5862 5861 5861 5861 5860 5860 5860 5860 5859 5859 5859 5859 5858 5858 5858 5857 5857 5856 5856 5855 5854 5854 5854 5853 5853 5853 5852 5852 5851 5850 5850 5849 5849 5849 5848 5848 5848 5847 5847 5846 5846 5845 5845 5844 5844 5844 5844 5844 5843 5843 5843 5843 5842 5842 5842 5841 5841 5841 5841 5841 5840 5840 5840 5840 5839 5839 5839 5839 5838 5837 5836 5836 5836 5835 5835 5834 5834 5834 5833
5859 5860 5860 5860 5860 5860 5861 5861 5861 5861 5861 5861 5861 5861 5861 5861 5861 5861 5861 5861 5860 5860 5860 5860 5860 5859 5859 5859 5859 5858 5858 5858 5858 5857 5857 5857 5856 5856 5856 5855 5855 5854 5854 5853 5853 5852 5852 5851 5851 5850 5850 5849 5849 5848 5848 5847 5847 5846 5846 5846 5845 5845 5844 5844 5844 5843 5843 5842 5842 5842 5841 5841 5841 5841 5841 5840 5840 5840 5839 5839 5839 5838 5838 5838 5838 5838 5837 5837 5837 5837 5836 5836 5836 5835 5834 5834 5833 5833 5832 5832 5832 5831 5830
5858 5858 5858 5859 5859 5859 5859 5859 5859 5859 5859 5859 5859 5859 5859 5859 5859 5859 5859 5859 5859 5858 5858 5858 5858 5857 5857 5857 5856 5856 5856 5856 5855 5855 5855 5855 5854 5854 5854 5854 5853 5853 5852 5852 5851 5850 5850 5849 5849 5849 5848 5847 5847 5846 5846 5845 5845 5844 5844 5844 5843 5843 5843 5842 5842 5841 5841 5840 5840 5839 5839 5839 5839 5839 5838 5838 5838 5837 5837 5836 5836 5836 5835 5835 5835 5835 5834 5834 5834 5834 5834 5833 5832 5832 5832 5831 5830 5830 5829 5829 5829 5829 5828
5856 5856 5856 5857 5857 5857 5857 5857 5857 5857 5857 5857 5857 5857 5857 5857 5857 5857 5857 5856 5856 5856 5856 5856 5855 5855 5855 5854 5854 5854 5854 5854 5854 5853 5853 5853 5852 5852 5852 5851 5851 5851 5850 5850 5849 5849 5849 5848 5848 5847 5846 5846 5845 5845 5844 5844 5844 5843 5843 5842 5842 5841 5841 5840 5840 5839 5839 5839 5838 5838 5837 5837 5836 5836 5836 5836 5835 5835 5834 5834 5834 5833 5833 5833 5832 5832 5832 5831 5831 5831 5830 5830 5829 5829 5829 5829 5829 5829 5828 5827 5827 5826 5825
5854 5854 5854 5855 5855 5855 5855 5855 5855 5855 5855 5855 5855 5855 5855 5855 5855 5855 5854 5854 5854 5854 5854 5854 5853 5853 5853 5853 5852 5852 5852 5852 5851 5851 5851 5851 5850 5850 5850 5849 5849 5849 5849 5848 5848 5847 5847 5847 5846 5845 5845 5844 5844 5843 5843 5842 5842 5841 5841 5840 5840 5839 5839 5839 5838 5838 5837 5837 5836 5835 5835 5834 5834 5834 5833 5833 5833 5832 5832 5832 5831 5831 5830 5830 5830 5829 5829 5829 5829 5828 5828 5827 5827 5826 5825 5825 5824 5824 5824 5824 5824 5823 5822
5852 5852 5853 5853 5853 5853 5853 5853 5853 5853 5853 5853 5853 5853 5853 5853 5853 5852 5852 5852 5852 5852 5851 5851 5851 5851 5851 5850 5850 5850 5850 5850 5849 5849 5849 5849 5848 5848 5848 5848 5847 5847 5847 5846 5846 5845 5845 5844 5844 5844 5843 5843 5842 5842 5841 5840 5840 5839 5839 5839 5838 5838 5837 5837 5836 5836 5835 5835 5834 5834 5833 5832 5832 5831 5831 5830 5830 5830 5829 5829 5829 5828 5828 5828 5827 5827 5827 5826 5826 5825 5825 5824 5824 5823 5823 5822 5821 5821 5821 5820 5821 5820 5820
5849 5850 5850 5850 5850 5851 5850 5850 5850 5850 5850 5850 5850 5850 5850 5850 5850 5850 5850 5850 5850 5849 5849 5849 5849 5849 5849 5848 5848 5848 5848 5848 5847 5847 5847 5847 5846 5846 5846 5846 5845 5845 5845 5844 5844 5844 5843 5843 5842 5841 5841 5840 5840 5839 5839 5839 5838 5838 5837 5837 5836 5836 5835 5835 5834 5834 5834 5833 5832 5832 5831 5830 5829 5829 5829 5828 5828 5827 5827 5826 5826 5826 5825 5825 5824 5824 5824 5824 5823 5823 5822 5822 5821 5821 5820 5819 5819 5818 5818 5818 5817 5817 5816
5847 5848 5848 5848 5848 5848 5848 5848 5848 5848 5848 5848 5848 5848 5848 5848 5848 5848 5848 5848 5848 5847 5847 5847 5847 5847 5846 5846 5846 5846 5846 5846 5845 5845 5845 5844 5844 5844 5844 5844 5844 5843 5843 5842 5842 5841 5841 5840 5840 5839 5839 5839 5838 5838 5837 5837 5836 5836 5835 5835 5834 5834 5833 5833 5832 5832 5831 5831 5830 5830 5829 5829 5828 5827 5826 5826 5825 5825 5825 5824 5823 5823 5822 5822 5822 5822 5821 5821 5820 5820 5820 5819 5819 5818 5817 5817 5816 5815 5815 5815 5814 5814 5814
5845 5845 5845 5845 5846 5846 5846 5846 5845 5845 5845 5845 5845 5845 5845 5846 5846 5845 5845 5845 5845 5845 5845 5845 5844 5844 5844 5844 5844 5844 5844 5844 5844 5843 5843 5843 5842 5842 5842 5842 5842 5841 5841 5840 5840 5839 5839 5839 5838 5838 5837 5837 5836 5836 5835 5835 5834 5834 5834 5833 5833 5832 5832 5831 5830 5830 5829 5829 5829 5828 5827 5827 5826 5825 5824 5824 5824 5823 5822 5822 5821 5820 5820 5819 5819 5819 5818 5818 5818 5817 5817 5816 5816 5815 5814 5814 5813 5813 5812 5812 5811 5811 5810
5842 5843 5843 5843 5843 5843 5843 5843 5843 5843 5843 5843 5843 5843 5843 5843 5843 5843 5843 5843 5843 5843 5843 5842 5842 5842 5842 5842 5842 5842 5842 5842 5841 5841 5841 5840 5840 5840 5840 5840 5839 5839 5839 5839 5838 5838 5837 5837 5836 5836 5835 5835 5834 5834 5834 5833 5833 5832 5832 5831 5831 5830 5830 5829 5829 5828 5828 5827 5826 5826 5825 5825 5824 5823 5823 5823 5822 5821 5820 5819 5819 5818 5818 5817 5817 5816 5815 5815 5814 5814 5814 5813 5813 5812 5812 5811 5810 5810 5809 5809 5808 5808 5807
5840 5840 5840 5840 5840 5841 5841 5841 5841 5841 5841 5840 5840 5840 5840 5841 5841 5841 5841 5840 5840 5840 5840 5840 5840 5840 5840 5840 5840 5840 5840 5839 5839 5839 5839 5839 5839 5838 5838 5838 5838 5837 5837 5836 5836 5836 5835 5835 5834 5834 5834 5833 5833 5832 5832 5832 5831 5831 5830 5830 5829 5829 5829 5828 5827 5827 5826 5825 5824 5824 5823 5823 5822 5821 5821 5820 5819 5819 5818 5817 5816 5816 5815 5815 5814 5814 5813 5812 5812 5811 5811 5810 5809 5809 5809 5808 5807 5807 5806 5805 5805 5804 5804
5837 5837 5837 5838 5838 5838 5838 5838 5838 5838 5838 5838 5838 5838 5838 5838 5838 5838 5838 5838 5838 5838 5838 5838 5838 5838 5838 5838 5838 5838 5838 5838 5837 5837 5837 5837 5837 5836 5836 5836 5835 5835 5835 5834 5834 5834 5833 5833 5832 5832 5831 5831 5831 5830 5830 5830 5829 5829 5829 5828 5828 5827 5827 5826 5826 5825 5824 5824 5823 5822 5821 5821 5820 5819 5819 5818 5818 5817 5815 5815 5814 5813 5813 5812 5811 5811 5810 5810 5809 5809 5808 5807 5806 5806 5805 5804 5804 5803 5803 5802 5801 5801 5800
5834 5835 5835 5835 5835 5835 5835 5836 5836 5836 5835 5835 5835 5835 5835 5836 5836 5836 5836 5836 5836 5836 5836 5836 5836 5836 5836 5836 5836 5836 5836 5836 5835 5835 5835 5835 5835 5834 5834 5834 5834 5833 5833 5832 5832 5831 5831 5830 5830 5830 5829 5829 5829 5828 5828 5828 5827 5827 5827 5826 5826 5825 5825 5824 5824 5823 5822 5822 5821 5820 5819 5819 5818 5817 5817 5816 5815 5814 5814 5813 5812 5811 5810 5809 5809 5808 5807 5807 5806 5805 5805 5804 5804 5803 5802 5802 5801 5800 5799 5798 5798 5797 5796
5832 5832 5832 5832 5832 5833 5833 5833 5833 5833 5833 5833 5833 5833 5833 5833 5834 5834 5834 5834 5834 5834 5834 5834 5834 5834 5834 5834 5834 5834 5834 5834 5834 5834 5834 5833 5833 5833 5832 5832 5831 5831 5830 5830 5829 5829 5829 5828 5828 5828 5827 5827 5827 5826 5826 5825 5825 5824 5824 5824 5823 5823 5822 5822 5821 5820 5820 5819 5819 5818 5817 5817 5816 5815 5814 5814 5813 5812 5812 5811 5810 5809 5808 5807 5806 5805 5804 5804 5803 5802 5802 5801 5801 5800 5799 5799 5798 5797 5796 5795 5794 5793 5793
5829 5829 5829 5829 5829 5830 5830 5830 5830 5830 5830 5830 5830 5830 5831 5831 5831 5831 5831 5831 5831 5831 5831 5832 5832 5832 5832 5832 5832 5832 5832 5832 5832 5832 5832 5832 5831 5831 5830 5830 5829 5829 5829 5828 5828 5827 5827 5826 5826 5826 5825 5825 5824 5824 5824 5823 5823 5822 5822 5821 5821 5820 5819 5819 5819 5818 5817 5817 5816 5815 5815 5814 5813 5813 5812 5811 5810 5810 5809 5808 5807 5806 5805 5804 5804 5803 5802 5801 5800 5799 5798 5798 5797 5797 5796 5796 5795 5794 5793 5792 5791 5790 5789
5826 5827 5827 5827 5827 5827 5827 5827 5827 5828 5828 5828 5828 5828 5828 5829 5829 5829 5829 5829 5829 5829 5829 5829 5829 5830 5830 5830 5830 5830 5830 5830 5831 5831 5830 5830 5830 5829 5829 5828 5828 5827 5827 5826 5826 5825 5825 5824 5824 5824 5824 5823 5823 5822 5822 5821 5820 5820 5819 5819 5818 5818 5817 5816 5816 5815 5814 5814 5813 5813 5812 5811 5810 5810 5809 5808 5808 5807 5806 5805 5804 5804 5803 5802 5801 5800 5799 5798 5797 5796 5795 5794 5793 5793 5793 5792 5791 5790 5789 5789 5788 5786 5785
5824 5824 5824 5824 5824 5824 5824 5825 5825 5825 5825 5825 5825 5826 5826 5826 5827 5827 5827 5827 5827 5827 5827 5828 5828 5828 5828 5828 5828 5828 5829 5829 5829 5829 5829 5828 5828 5827 5827 5826 5826 5825 5825 5824 5824 5824 5823 5823 5823 5822 5822 5821 5821 5820 5819 5819 5818 5818 5817 5816 5815 5815 5814 5814 5813 5812 5812 5811 5810 5809 5809 5808 5807 5807 5806 5805 5804 5804 5803 5802 5801 5800 5799 5799 5798 5797 5796 5795 5794 5792 5791 5790 5789 5789 5788 5788 5787 5786 5785 5784 5784 5782 5781
5821 5821 5821 5821 5822 5822 5822 5822 5822 5823 5823 5823 5823 5824 5824 5824 5824 5825 5825 5825 5825 5825 5825 5825 5825 5826 5826 5826 5826 5827 5827 5827 5827 5827 5827 5826 5826 5825 5825 5824 5824 5823 5823 5822 5822 5822 5821 5821 5821 5820 5820 5819 5819 5818 5818 5817 5816 5815 5814 5814 5813 5812 5811 5811 5810 5809 5809 5808 5807 5806 5806 5805 5804 5804 5803 5802 5801 5800 5799 5799 5798 5797 5796 5795 5794 5793 5792 5791 5790 5789 5788 5786 5785 5784 5783 5783 5782 5781 5780 5779 5779 5778 5777
5819 5819 5819 5819 5819 5819 5819 5820 5820 5820 5820 5821 5821 5821 5822 5822 5822 5823 5823 5823 5823 5823 5823 5823 5824 5824 5824 5824 5825 5825 5825 5825 5825 5825 5824 5824 5824 5823 5823 5822 5821 5821 5820 5820 5820 5820 5819 5819 5819 5819 5818 5817 5817 5816 5815 5814 5814 5813 5812 5811 5810 5809 5809 5808 5807 5806 5805 5805 5804 5803 5802 5802 5801 5800 5799 5798 5798 5797 5796 5795 5794 5793 5792 5791 5790 5789 5788 5787 5786 5785 5784 5782 5781 5779 5778 5778 5776 5775 5774 5774 5773 5773 5772
5816 5816 5816 5816 5816 5817 5817 5817 5818 5818 5818 5818 5819 5819 5819 5820 5820 5820 5820 5820 5821 5821 5821 5821 5821 5822 5822 5822 5823 5823 5823 5823 5823 5823 5822 5822 5821 5821 5820 5820 5819 5819 5818 5818 5818 5818 5817 5817 5817 5816 5816 5815 5814 5814 5813 5812 5811 5810 5809 5809 5808 5807 5806 5805 5804 5803 5802 5802 5801 5800 5799 5798 5797 5797 5796 5795 5794 5793 5792 5791 5790 5789 5788 5787 5786 5785 5784 5783 5782 5780 5779 5778 5776 5775 5774 5772 5771 5770 5769 5768 5768 5767 5766
5813 5814 5814 5814 5814 5814 5814 5815 5815 5815 5816 5816 5817 5817 5818 5818 5818 5818 5818 5818 5819 5819 5819 5819 5819 5819 5820 5820 5821 5821 5821 5821 5821 5820 5820 5819 5819 5819 5818 5817 5817 5816 5816 5816 5815 5815 5815 5815 5814 5814 5813 5812 5812 5811 5810 5809 5809 5808 5807 5806 5805 5804 5803 5802 5801 5800 5799 5798 5797 5797 5796 5795 5794 5793 5792 5792 5791 5790 5789 5788 5787 5785 5784 5783 5782 5780 5779 5778 5777 5776 5774 5773 5772 5770 5769 5767 5766 5765 5764 5763 5762 5761 5760
5811 5811 5811 5811 5812 5812 5812 5813 5813 5813 5814 5814 5814 5815 5816 5816 5816 5816 5816 5816 5816 5817 5817 5817 5817 5818 5818 5818 5818 5819 5819 5819 5818 5818 5818 5817 5817 5816 5815 5815 5815 5814 5814 5813 5813 5813 5813 5812 5812 5811 5810 5810 5809 5808 5807 5806 5805 5804 5804 5803 5802 5801 5799 5799 5798 5797 5796 5795 5794 5793 5792 5791 5790 5789 5789 5788 5787 5786 5785 5784 5783 5781 5780 5779 5778 5776 5775 5774 5772 5771 5769 5768 5767 5765 5764 5762 5761 5759 5759 5758 5757 5756 5754
5808 5809 5809 5809 5809 5810 5810 5810 5811 5811 5811 5812 5813 5813 5814 5814 5814 5814 5814 5814 5814 5814 5814 5815 5815 5815 5815 5816 5816 5816 5816 5816 5816 5815 5815 5815 5814 5814 5813 5813 5812 5812 5811 5811 5810 5810 5810 5809 5809 5808 5808 5807 5806 5805 5804 5804 5803 5802 5800 5799 5799 5797 5796 5795 5794 5793 5792 5791 5790 5789 5789 5788 5787 5786 5785 5784 5783 5782 5781 5780 5779 5777 5776 5774 5773 5772 5770 5769 5767 5766 5764 5763 5762 5760 5759 5757 5756 5754 5754 5753 5752 5751 5750
5806 5806 5806 5807 5807 5808 5808 5808 5809 5809 5809 5810 5811 5811 5811 5812 5812 5812 5812 5812 5812 5812 5812 5813 5813 5813 5813 5813 5814 5814 5814 5814 5813 5813 5813 5812 5812 5811 5811 5810 5810 5809 5809 5808 5808 5808 5807 5807 5806 5805 5805 5804 5803 5802 5801 5800 5799 5798 5797 5796 5795 5794 5793 5792 5790 5789 5789 5788 5787 5786 5785 5784 5783 5782 5781 5780 5779 5778 5776 5775 5774 5773 5771 5770 5768 5767 5765 5764 5762 5761 5759 5758 5757 5755 5754 5752 5751 5749 5749 5748 5747 5746 5745
5803 5804 5804 5804 5805 5805 5805 5806 5806 5807 5807 5808 5809 5809 5809 5809 5809 5809 5809 5809 5810 5810 5810 5810 5810 5810 5811 5811 5811 5811 5811 5811 5811 5810 5810 5810 5809 5809 5808 5808 5807 5807 5806 5806 5805 5804 5804 5804 5803 5802 5801 5801 5800 5799 5798 5797 5796 5795 5794 5793 5792 5791 5789 5788 5787 5786 5785 5784 5783 5782 5781 5780 5779 5778 5777 5775 5774 5773 5772 5771 5769 5768 5766 5765 5763 5762 5760 5759 5758 5756 5755 5754 5752 5750 5749 5747 5745 5744 5744 5743 5742 5741 5740
5801 5801 5802 5802 5803 5803 5803 5804 5804 5804 5805 5806 5806 5806 5807 5807 5807 5807 5807 5807 5808 5808 5808 5808 5808 5808 5808 5809 5809 5809 5809 5809 5808 5808 5808 5807 5806 5805 5805 5805 5805 5804 5804 5803 5802 5802 5801 5800 5800 5799 5798 5797 5796 5795 5795 5794 5793 5792 5791 5790 5789 5787 5786 5785 5784 5782 5781 5780 5779 5778 5777 5776 5775 5774 5773 5771 5770 5769 5767 5766 5764 5763 5762 5760 5759 5757 5756 5754 5753 5752 5751 5749 5748 5746 5744 5742 5741 5739 5739 5738 5737 5736 5736
5799 5799 5799 5800 5800 5800 5801 5801 5802 5802 5803 5803 5804 5804 5804 5804 5804 5804 5805 5805 5805 5805 5805 5805 5805 5805 5806 5806 5806 5806 5806 5806 5806 5805 5805 5804 5804 5802 5801 5801 5801 5801 5801 5800 5799 5799 5798 5797 5796 5795 5795 5794 5793 5792 5791 5790 5789 5789 5787 5786 5785 5784 5783 5781 5780 5779 5778 5777 5776 5774 5774 5772 5771 5770 5769 5767 5766 5764 5763 5762 5760 5759 5757 5756 5754 5753 5752 5751 5749 5748 5747 5745 5744 5741 5740 5738 5737 5735 5734 5734 5733 5732 5731
5796 5797 5797 5797 5798 5798 5798 5799 5799 5800 5800 5801 5801 5801 5801 5802 5802 5802 5802 5803 5803 5803 5803 5803 5803 5803 5803 5803 5803 5804 5804 5803 5803 5803 5802 5801 5801 5800 5799 5798 5798 5798 5798 5797 5796 5796 5795 5794 5793 5792 5791 5790 5789 5789 5788 5787 5786 5785 5784 5783 5782 5780 5779 5778 5777 5775 5774 5773 5772 5771 5770 5768 5767 5766 5764 5763 5762 5760 5759 5758 5756 5755 5754 5752 5751 5749 5748 5747 5746 5745 5744 5742 5740 5738 5736 5734 5733 5732 5731 5730 5729 5728 5728
5794 5794 5794 5795 5795 5795 5796 5796 5797 5797 5798 5798 5798 5799 5799 5799 5799 5800 5800 5800 5800 5800 5800 5800 5800 5800 5800 5800 5800 5800 5800 5800 5800 5800 5799 5798 5798 5797 5796 5795 5794 5794 5794 5794 5793 5792 5792 5791 5790 5789 5788 5787 5786 5785 5785 5784 5783 5782 5781 5779 5778 5777 5776 5774 5773 5772 5770 5769 5768 5767 5765 5764 5763 5762 5760 5759 5758 5756 5755 5754 5752 5751 5750 5749 5748 5746 5745 5744 5743 5742 5740 5739 5737 5735 5733 5731 5730 5729 5728 5727 5726 5725 5725
5791 5792 5792 5792 5793 5793 5794 5794 5794 5795 5795 5795 5795 5796 5796 5797 5797 5797 5797 5797 5797 5797 5797 5797 5797 5797 5797 5798 5798 5797 5797 5797 5797 5797 5797 5796 5794 5794 5793 5792 5791 5791 5791 5791 5789 5788 5789 5788 5787 5786 5785 5784 5783 5782 5781 5781 5780 5778 5777 5776 5775 5773 5772 5771 5769 5768 5767 5765 5764 5762 5761 5760 5759 5757 5756 5755 5754 5752 5751 5750 5749 5748 5747 5746 5745 5744 5743 5741 5740 5739 5737 5736 5734 5732 5730 5729 5728 5726 5725 5725 5724 5723 5723
5789 5789 5789 5790 5790 5790 5791 5791 5792 5792 5792 5793 5793 5793 5793 5794 5794 5794 5794 5794 5794 5794 5794 5794 5794 5794 5794 5794 5794 5794 5794 5794 5794 5794 5793 5793 5792 5791 5789 5789 5789 5788 5787 5787 5786 5784 5784 5784 5784 5782 5781 5781 5780 5779 5778 5778 5777 5775 5774 5773 5771 5770 5769 5767 5766 5764 5763 5761 5759 5758 5757 5755 5754 5753 5752 5751 5749 5749 5748 5747 5746 5745 5744 5743 5742 5741 5740 5739 5738 5736 5735 5733 5732 5730 5729 5727 5726 5725 5724 5723 5723 5722 5721
5786 5787 5787 5787 5788 5788 5788 5788 5789 5789 5789 5790 5790 5790 5790 5791 5791 5791 5791 5791 5791 5791 5791 5791 5791 5791 5791 5791 5791 5791 5791 5791 5791 5791 5790 5789 5789 5788 5787 5786 5785 5784 5784 5784 5783 5781 5780 5780 5780 5779 5777 5778 5777 5776 5774 5774 5774 5772 5770 5769 5768 5767 5765 5764 5762 5761 5759 5757 5755 5754 5752 5751 5750 5749 5748 5747 5746 5745 5744 5744 5743 5742 5741 5740 5739 5739 5737 5736 5735 5734 5732 5731 5730 5728 5727 5726 5725 5724 5723 5722 5722 5721 5720
5784 5784 5784 5784 5785 5785 5785 5785 5786 5786 5786 5787 5787 5787 5788 5788 5788 5788 5788 5788 5788 5788 5789 5788 5788 5788 5788 5788 5787 5787 5788 5788 5788 5787 5787 5786 5785 5785 5784 5783 5782 5782 5781 5780 5779 5778 5777 5777 5776 5774 5773 5774 5774 5773 5771 5771 5770 5769 5767 5766 5765 5764 5762 5760 5759 5757 5755 5754 5752 5750 5749 5747 5746 5745 5744 5743 5742 5742 5741 5741 5740 5739 5739 5738 5737 5736 5735 5734 5733 5731 5730 5729 5728 5727 5725 5724 5724 5723 5722 5721 5721 5720 5719
5781 5781 5781 5782 5782 5782 5782 5783 5783 5783 5784 5784 5784 5784 5784 5785 5785 5785 5785 5785 5785 5785 5785 5785 5785 5784 5784 5784 5784 5784 5784 5784 5784 5784 5784 5783 5782 5781 5781 5780 5779 5779 5778 5776 5775 5774 5773 5773 5773 5771 5769 5770 5771 5770 5768 5767 5766 5765 5764 5763 5761 5760 5759 5757 5755 5754 5752 5750 5749 5747 5745 5744 5743 5741 5740 5739 5739 5739 5738 5738 5738 5737 5736 5735 5734 5734 5733 5732 5730 5729 5728 5727 5726 5725 5724 5723 5722 5721 5721 5720 5719 5719 5719
5778 5778 5779 5779 5779 5779 5779 5779 5780 5780 5780 5780 5781 5781 5781 5782 5782 5782 5782 5782 5782 5782 5782 5782 5782 5781 5781 5781 5781 5780 5780 5780 5780 5781 5780 5779 5779 5778 5778 5777 5777 5776 5775 5774 5773 5771 5769 5769 5768 5767 5766 5765 5765 5766 5766 5764 5763 5762 5761 5759 5758 5757 5755 5754 5752 5750 5749 5747 5745 5744 5742 5741 5740 5739 5738 5737 5736 5736 5736 5735 5735 5734 5734 5733 5732 5731 5730 5729 5729 5727 5726 5725 5724 5723 5722 5721 5721 5720 5719 5719 5718 5718 5717
5775 5775 5775 5776 5776 5776 5776 5777 5777 5777 5777 5777 5778 5778 5778 5778 5779 5779 5779 5779 5779 5779 5779 5779 5778 5778 5778 5778 5778 5777 5776 5776 5776 5777 5777 5776 5775 5775 5775 5774 5773 5773 5772 5771 5770 5769 5767 5765 5764 5763 5763 5761 5760 5761 5762 5761 5760 5759 5757 5756 5754 5753 5752 5750 5749 5747 5745 5744 5742 5741 5739 5738 5737 5736 5735 5734 5734 5734 5733 5733 5733 5732 5731 5730 5729 5729 5728 5727 5726 5725 5724 5723 5722 5721 5720 5720 5719 5718 5718 5717 5717 5716 5715
5772 5772 5772 5773 5773 5773 5773 5774 5774 5774 5774 5774 5774 5774 5775 5775 5775 5775 5775 5775 5775 5775 5775 5775 5775 5774 5774 5774 5774 5774 5773 5773 5773 5773 5773 5772 5772 5772 5772 5771 5770 5769 5769 5768 5767 5766 5764 5763 5761 5759 5759 5757 5756 5756 5756 5757 5757 5756 5754 5752 5751 5750 5748 5746 5745 5744 5742 5740 5739 5738 5737 5735 5734 5734 5733 5732 5732 5731 5731 5731 5730 5729 5728 5728 5727 5727 5726 5725 5724 5723 5722 5721 5720 5719 5719 5718 5717 5717 5716 5715 5715 5714 5714
5769 5769 5769 5769 5769 5770 5770 5770 5770 5770 5770 5771 5771 5771 5771 5771 5772 5772 5772 5772 5772 5772 5772 5771 5771 5771 5771 5771 5771 5770 5770 5769 5769 5769 5769 5769 5768 5768 5768 5768 5767 5766 5766 5765 5764 5763 5762 5760 5758 5757 5755 5754 5753 5752 5751 5751 5751 5751 5750 5749 5748 5746 5744 5743 5742 5740 5739 5737 5736 5735 5734 5733 5732 5731 5731 5730 5730 5729 5729 5728 5728 5727 5726 5725 5725 5724 5724 5723 5722 5721 5720 5719 5718 5718 5717 5716 5715 5715 5714 5714 5713 5713 5712